JRR1588 EGPH-EIDW

Flight info

Callsign JRR1588
Flight time N/A
Altitude 28000
Route GOSAM P600 TRN DCT BLACA P620 NIMAT NIMAT3R
Aircraft B738/M-SDE2E3FGHIRWXY/LB1

Departure

Time 2026-04-25 22:14
Airport Edinburgh Airport (EGPH)

Arrival

Time N/A
Airport Dublin Airport (EIDW)
Time Latitude Longitude Altitude Speed Heading
2026-04-25 21:37 55.95123 -3.35311 111 ft 0 kts 28°
2026-04-25 22:00 55.95112 -3.35323 112 ft 4 kts 25°
2026-04-25 22:00 55.95089 -3.35331 111 ft 4 kts 328°
2026-04-25 22:00 55.95073 -3.35299 114 ft 2 kts 299°
2026-04-25 22:00 55.95070 -3.35289 114 ft 0 kts 298°
2026-04-25 22:04 55.95080 -3.35321 112 ft 6 kts 299°
2026-04-25 22:04 55.95102 -3.35392 114 ft 7 kts 299°
2026-04-25 22:04 55.95125 -3.35464 113 ft 7 kts 299°
2026-04-25 22:05 55.95154 -3.35557 114 ft 11 kts 299°
2026-04-25 22:05 55.95199 -3.35707 115 ft 13 kts 297°
2026-04-25 22:05 55.95234 -3.35806 115 ft 9 kts 319°
2026-04-25 22:05 55.95264 -3.35894 114 ft 9 kts 253°
2026-04-25 22:06 55.95233 -3.35989 113 ft 9 kts 239°
2026-04-25 22:06 55.95195 -3.36100 113 ft 13 kts 239°
2026-04-25 22:06 55.95142 -3.36259 115 ft 16 kts 239°
2026-04-25 22:06 55.95080 -3.36442 115 ft 18 kts 239°
2026-04-25 22:07 55.95014 -3.36640 113 ft 19 kts 238°
2026-04-25 22:07 55.94966 -3.36779 112 ft 20 kts 239°
2026-04-25 22:07 55.94864 -3.37079 115 ft 22 kts 238°
2026-04-25 22:07 55.94782 -3.37321 114 ft 23 kts 239°
2026-04-25 22:08 55.94696 -3.37574 115 ft 24 kts 239°
2026-04-25 22:08 55.94611 -3.37827 114 ft 23 kts 239°
2026-04-25 22:08 55.94530 -3.38068 115 ft 22 kts 239°
2026-04-25 22:08 55.94450 -3.38302 112 ft 22 kts 239°
2026-04-25 22:09 55.94373 -3.38529 114 ft 21 kts 239°
2026-04-25 22:09 55.94302 -3.38736 113 ft 14 kts 238°
2026-04-25 22:09 55.94283 -3.38851 115 ft 8 kts 292°
2026-04-25 22:09 55.94326 -3.38909 115 ft 8 kts 330°
2026-04-25 22:10 55.94382 -3.38968 112 ft 7 kts 328°
2026-04-25 22:10 55.94412 -3.38980 113 ft 5 kts 39°
2026-04-25 22:10 55.94418 -3.38961 113 ft 0 kts 60°
2026-04-25 22:13 55.94498 -3.38726 112 ft 56 kts 58°
2026-04-25 22:13 55.94823 -3.37770 113 ft 121 kts 58°
2026-04-25 22:13 55.95353 -3.36220 202 ft 165 kts 58°
2026-04-25 22:14 55.95951 -3.34506 1065 ft 153 kts 57°
2026-04-25 22:14 55.96671 -3.33114 1834 ft 159 kts 42°
2026-04-25 22:14 55.97511 -3.31829 2520 ft 164 kts 46°
2026-04-25 22:14 55.98365 -3.30456 3259 ft 168 kts 44°
2026-04-25 22:15 55.99301 -3.28994 3669 ft 194 kts 36°
2026-04-25 22:15 56.00618 -3.27983 3908 ft 220 kts
2026-04-25 22:15 56.02173 -3.28372 4120 ft 236 kts 330°
2026-04-25 22:16 56.03589 -3.33532 5025 ft 258 kts 257°
2026-04-25 22:16 56.03032 -3.36582 5691 ft 260 kts 251°
2026-04-25 22:16 56.02477 -3.39666 5990 ft 263 kts 253°
2026-04-25 22:16 56.01964 -3.42838 6175 ft 265 kts 253°
2026-04-25 22:17 56.01472 -3.46029 6943 ft 267 kts 254°
2026-04-25 22:17 56.00998 -3.49255 7752 ft 270 kts 255°
2026-04-25 22:17 56.00531 -3.52505 8606 ft 271 kts 255°
2026-04-25 22:17 56.00063 -3.55789 9387 ft 275 kts 254°
2026-04-25 22:18 55.99579 -3.59110 10182 ft 278 kts 253°
2026-04-25 22:18 55.99087 -3.62500 10727 ft 290 kts 253°
2026-04-25 22:18 55.98560 -3.66144 10894 ft 315 kts 254°
2026-04-25 22:18 55.97997 -3.70057 11118 ft 335 kts 254°
2026-04-25 22:19 55.97408 -3.74157 11655 ft 344 kts 254°
2026-04-25 22:19 55.96819 -3.78260 12351 ft 347 kts 254°
2026-04-25 22:19 55.96216 -3.82464 13111 ft 350 kts 254°
2026-04-25 22:19 55.95607 -3.86691 13874 ft 354 kts 254°
2026-04-25 22:20 55.94989 -3.90979 14580 ft 358 kts 254°
2026-04-25 22:20 55.94366 -3.95302 15319 ft 361 kts 254°
2026-04-25 22:20 55.93554 -3.99542 15956 ft 362 kts 242°
2026-04-25 22:20 55.92154 -4.03253 16267 ft 362 kts 229°
2026-04-25 22:21 55.90332 -4.06352 16288 ft 364 kts 217°
2026-04-25 22:21 55.88251 -4.08925 16291 ft 364 kts 214°
2026-04-25 22:21 55.86142 -4.11410 16286 ft 364 kts 214°
2026-04-25 22:21 55.84024 -4.13919 16474 ft 368 kts 214°
2026-04-25 22:22 55.81883 -4.16488 17177 ft 371 kts 215°
2026-04-25 22:22 55.79747 -4.19067 17999 ft 371 kts 216°
2026-04-25 22:22 55.77612 -4.21665 18695 ft 375 kts 216°
2026-04-25 22:22 55.75488 -4.24285 19267 ft 379 kts 216°
2026-04-25 22:23 55.73312 -4.26968 19869 ft 382 kts 216°
2026-04-25 22:23 55.71118 -4.29667 20474 ft 385 kts 216°
2026-04-25 22:23 55.68911 -4.32389 21052 ft 388 kts 217°
2026-04-25 22:23 55.66689 -4.35136 21625 ft 391 kts 217°
2026-04-25 22:24 55.64446 -4.37908 22192 ft 395 kts 217°
2026-04-25 22:24 55.62179 -4.40707 22756 ft 398 kts 216°
2026-04-25 22:24 55.59895 -4.43521 23300 ft 402 kts 216°
2026-04-25 22:24 55.57590 -4.46355 23819 ft 405 kts 216°
2026-04-25 22:25 55.55269 -4.49206 24297 ft 407 kts 216°
2026-04-25 22:25 55.52937 -4.52065 24770 ft 408 kts 216°
2026-04-25 22:25 55.50601 -4.54924 25221 ft 410 kts 216°
2026-04-25 22:25 55.48245 -4.57805 25658 ft 413 kts 216°
2026-04-25 22:26 55.46679 -4.59716 25932 ft 415 kts 216°
2026-04-25 22:26 55.43518 -4.63570 26495 ft 418 kts 216°
2026-04-25 22:26 55.41119 -4.66491 26914 ft 420 kts 216°
2026-04-25 22:26 55.39494 -4.68466 27240 ft 420 kts 216°
2026-04-25 22:27 55.37131 -4.71337 27853 ft 417 kts 216°
2026-04-25 22:27 55.34754 -4.74217 28501 ft 414 kts 216°
2026-04-25 22:27 55.32387 -4.77081 29092 ft 412 kts 216°
2026-04-25 22:27 55.29962 -4.79755 29625 ft 413 kts 210°
2026-04-25 22:28 55.27411 -4.82052 30171 ft 412 kts 208°
2026-04-25 22:28 55.22210 -4.86501 30237 ft 416 kts 208°
2026-04-25 22:29 55.17060 -4.90927 30238 ft 410 kts 208°
2026-04-25 22:29 55.11932 -4.95391 30247 ft 413 kts 208°
2026-04-25 22:30 55.04192 -5.02138 30245 ft 415 kts 208°
2026-04-25 22:30 54.99897 -5.05869 30228 ft 415 kts 208°
2026-04-25 22:31 54.93900 -5.11073 30231 ft 412 kts 208°
2026-04-25 22:31 54.88743 -5.15423 30216 ft 412 kts 204°
2026-04-25 22:32 54.83234 -5.17929 29863 ft 404 kts 194°
2026-04-25 22:32 54.80538 -5.18873 29585 ft 398 kts 194°
2026-04-25 22:32 54.77832 -5.19824 29301 ft 394 kts 194°
2026-04-25 22:33 54.75155 -5.20779 29025 ft 393 kts 194°
2026-04-25 22:33 54.72479 -5.21746 28753 ft 391 kts 194°
2026-04-25 22:33 54.69821 -5.22715 28482 ft 390 kts 194°
2026-04-25 22:33 54.67166 -5.23686 28214 ft 389 kts 194°
2026-04-25 22:34 54.64508 -5.24659 27943 ft 388 kts 194°
2026-04-25 22:34 54.61867 -5.25624 27672 ft 387 kts 194°
2026-04-25 22:34 54.59233 -5.26584 27408 ft 386 kts 194°
2026-04-25 22:34 54.56648 -5.27525 27093 ft 383 kts 194°
2026-04-25 22:35 54.54054 -5.28469 26710 ft 378 kts 194°
2026-04-25 22:35 54.51487 -5.29403 26289 ft 375 kts 194°
2026-04-25 22:35 54.48961 -5.30475 25869 ft 371 kts 200°
2026-04-25 22:35 54.46603 -5.32191 25475 ft 366 kts 208°
2026-04-25 22:36 54.44335 -5.34133 25076 ft 363 kts 208°
2026-04-25 22:36 54.42110 -5.36051 24683 ft 361 kts 208°
2026-04-25 22:36 54.39865 -5.37976 24274 ft 359 kts 208°
2026-04-25 22:36 54.37630 -5.39878 23856 ft 358 kts 207°
2026-04-25 22:37 54.35404 -5.41761 23393 ft 357 kts 207°
2026-04-25 22:37 54.33179 -5.43633 22956 ft 354 kts 207°
2026-04-25 22:37 54.30974 -5.45484 22540 ft 351 kts 207°
2026-04-25 22:37 54.28786 -5.47316 22144 ft 348 kts 207°
2026-04-25 22:38 54.26618 -5.49129 21752 ft 346 kts 207°
2026-04-25 22:38 54.24462 -5.50929 21349 ft 343 kts 207°
2026-04-25 22:38 54.22321 -5.52714 20969 ft 341 kts 207°
2026-04-25 22:38 54.20198 -5.54483 20587 ft 339 kts 207°
2026-04-25 22:39 54.18080 -5.56247 20205 ft 339 kts 207°
2026-04-25 22:39 54.15962 -5.58014 19830 ft 339 kts 207°
2026-04-25 22:39 54.13838 -5.59783 19443 ft 338 kts 207°
2026-04-25 22:39 54.11735 -5.61539 19065 ft 336 kts 207°
2026-04-25 22:40 54.09643 -5.63287 18678 ft 334 kts 207°
2026-04-25 22:40 54.07586 -5.65013 18245 ft 332 kts 210°
2026-04-25 22:40 54.05598 -5.66995 17838 ft 329 kts 215°
2026-04-25 22:40 54.03597 -5.68862 17461 ft 326 kts 208°
2026-04-25 22:41 54.01540 -5.70403 17108 ft 322 kts 207°
2026-04-25 22:41 53.99494 -5.71966 16734 ft 323 kts 208°
2026-04-25 22:41 53.97461 -5.73590 16353 ft 324 kts 206°
2026-04-25 22:41 53.95288 -5.74422 16274 ft 318 kts 188°
2026-04-25 22:42 53.93085 -5.74645 16215 ft 314 kts 188°
2026-04-25 22:42 53.90930 -5.74829 16024 ft 309 kts 187°
2026-04-25 22:42 53.88805 -5.74991 15727 ft 305 kts 187°
2026-04-25 22:42 53.86647 -5.75147 15041 ft 315 kts 186°
2026-04-25 22:43 53.84469 -5.75284 14815 ft 312 kts 186°
2026-04-25 22:43 53.82296 -5.75443 14591 ft 314 kts 191°
2026-04-25 22:43 53.80289 -5.76744 14271 ft 317 kts 218°
2026-04-25 22:43 53.78611 -5.79157 14045 ft 316 kts 228°
2026-04-25 22:44 53.77182 -5.81962 13721 ft 313 kts 232°
2026-04-25 22:44 53.75786 -5.84774 13283 ft 311 kts 231°
2026-04-25 22:44 53.74372 -5.87535 12900 ft 309 kts 230°
2026-04-25 22:44 53.72961 -5.90240 12608 ft 306 kts 230°
2026-04-25 22:45 53.71553 -5.92930 12380 ft 304 kts 231°
2026-04-25 22:45 53.70175 -5.95630 12078 ft 304 kts 230°
2026-04-25 22:45 53.68773 -5.98314 11726 ft 305 kts 229°
2026-04-25 22:45 53.67349 -6.00946 11465 ft 303 kts 228°
2026-04-25 22:46 53.65899 -6.03528 11199 ft 302 kts 228°
2026-04-25 22:46 53.64468 -6.06118 10921 ft 299 kts 229°
2026-04-25 22:46 53.63079 -6.08687 10646 ft 294 kts 229°
2026-04-25 22:46 53.61724 -6.11228 10380 ft 289 kts 229°
2026-04-25 22:47 53.60401 -6.13731 10160 ft 283 kts 229°
2026-04-25 22:47 53.59284 -6.16308 10155 ft 271 kts 245°
2026-04-25 22:47 53.58764 -6.19415 9643 ft 278 kts 260°
2026-04-25 22:47 53.58386 -6.22596 9335 ft 275 kts 258°
2026-04-25 22:48 53.57977 -6.25713 9080 ft 270 kts 258°
2026-04-25 22:48 53.57569 -6.28776 8816 ft 266 kts 258°
2026-04-25 22:48 53.57170 -6.31794 8570 ft 262 kts 258°
2026-04-25 22:48 53.56938 -6.34795 8368 ft 260 kts 277°
2026-04-25 22:49 53.57551 -6.37607 8239 ft 257 kts 305°
2026-04-25 22:49 53.58808 -6.39695 8213 ft 254 kts 330°
2026-04-25 22:49 53.60369 -6.41079 8182 ft 254 kts 335°
2026-04-25 22:49 53.61947 -6.42456 8215 ft 257 kts 334°
2026-04-25 22:50 53.63545 -6.43871 8223 ft 261 kts 334°
2026-04-25 22:50 53.65012 -6.45555 8160 ft 255 kts 310°
2026-04-25 22:50 53.65951 -6.48014 8232 ft 249 kts 301°
2026-04-25 22:50 53.66830 -6.50556 8218 ft 252 kts 301°
2026-04-25 22:51 53.67722 -6.53121 8218 ft 254 kts 301°
2026-04-25 22:51 53.68579 -6.55710 8169 ft 251 kts 291°
2026-04-25 22:51 53.68736 -6.58526 8204 ft 237 kts 256°
2026-04-25 22:51 53.67954 -6.60918 8000 ft 237 kts 223°
2026-04-25 22:52 53.66490 -6.62099 7764 ft 237 kts 189°
2026-04-25 22:52 53.64869 -6.62067 7632 ft 232 kts 189°
2026-04-25 22:52 53.63304 -6.62690 7308 ft 234 kts 200°
2026-04-25 22:52 53.62250 -6.63203 7132 ft 232 kts 199°
2026-04-25 22:53 53.60208 -6.64156 6805 ft 228 kts 199°
2026-04-25 22:53 53.58690 -6.64870 6554 ft 225 kts 199°
2026-04-25 22:53 53.57187 -6.65583 6323 ft 224 kts 200°
2026-04-25 22:53 53.55695 -6.66300 6071 ft 221 kts 200°
2026-04-25 22:54 53.54222 -6.66974 5805 ft 218 kts 194°
2026-04-25 22:54 53.52734 -6.67273 5476 ft 214 kts 189°
2026-04-25 22:54 53.51270 -6.67489 5210 ft 207 kts 189°
2026-04-25 22:54 53.49868 -6.67709 4964 ft 198 kts 191°
2026-04-25 22:55 53.48522 -6.67933 4719 ft 192 kts 188°
2026-04-25 22:55 53.47237 -6.67527 4511 ft 187 kts 156°
2026-04-25 22:55 53.46280 -6.66146 4359 ft 184 kts 135°
2026-04-25 22:55 53.45772 -6.64168 4129 ft 189 kts 104°
2026-04-25 22:56 53.45650 -6.62001 4072 ft 185 kts 105°
2026-04-25 22:56 53.45506 -6.59841 3917 ft 187 kts 104°
2026-04-25 22:56 53.45377 -6.57708 3676 ft 181 kts 104°
2026-04-25 22:56 53.45257 -6.55642 3451 ft 175 kts 104°
2026-04-25 22:57 53.45141 -6.53629 3234 ft 172 kts 103°
2026-04-25 22:57 53.45027 -6.51619 2995 ft 175 kts 103°
2026-04-25 22:57 53.44912 -6.49588 2769 ft 175 kts 103°
2026-04-25 22:57 53.44800 -6.47612 2517 ft 165 kts 103°
2026-04-25 22:58 53.44691 -6.45734 2307 ft 161 kts 103°
2026-04-25 22:58 53.44585 -6.43844 2104 ft 164 kts 103°
2026-04-25 22:58 53.44485 -6.41984 1887 ft 158 kts 104°
2026-04-25 22:58 53.44383 -6.40165 1666 ft 156 kts 104°
2026-04-25 22:59 53.44280 -6.38345 1454 ft 157 kts 104°
2026-04-25 22:59 53.44179 -6.36526 1237 ft 156 kts 104°
2026-04-25 22:59 53.44076 -6.34765 1018 ft 147 kts 109°
2026-04-25 22:59 53.43593 -6.33555 823 ft 130 kts 169°
2026-04-25 23:00 53.42884 -6.33790 295 ft 69 kts 272°
2026-04-25 23:00 53.42837 -6.33853 370 ft 55 kts 86°